Flag for China Weather past 2 weeks in Langfang, Hebei, China

Now
79 °F

Passing clouds.


Feels Like: 81 °F
Forecast: 66 / 83 °F
Wind: 3 mph from Southeast

Location: Beijing Airport

Current Time: Aug 31, 2014 at 1:31:06 PM

Latest Report: Aug 31, 2014 at 1:00 PM


Visibility: N/A

Pressure: 29.92 "Hg

Humidity: 70%

Dew point: 68 °F

Location of LangfangLocation

Historic Weather in Langfang — Graph

°F

Langfang temperature yesterday

Maximum temperature yesterday: 79 °F (at 1:30 PM)
Minimum temperature yesterday: 70 °F (at 5:00 AM)
Average temperature yesterday: 73 °F

Past Weeks' High & Low Weather Summary

 TemperatureHumidityPressure
High97 °F (Aug 26, 2:30 PM)100% (Aug 31, 4:30 AM)30.01 "Hg (Aug 31, 4:30 AM)
Low61 °F (Aug 26, 4:30 AM)14% (Aug 26, 2:30 PM)29.62 "Hg (Aug 23, 2:00 PM)
Average78 °F64%29.84 "Hg
* Reported Aug 16 12:00 Noon — Aug 31 12:30 PM, Langfang, Weather by CustomWeather, © 2014

Note: Actual official high and low records may vary slightly from our data, if they occured in-between our weather recording intervals... More about our weather records

Advertising

Langfang weather history for previous 24 hours

 ConditionsComfort  
Time TempWeatherWind HumidityBarometerVisibility
12:30 PM
Aug 31
77 °FPassing clouds.3 mph74%29.92 "HgN/A
12:00 PM77 °FPassing clouds.1 mph69%29.92 "HgN/A
11:30 AM75 °FPassing clouds.3 mph78%29.92 "Hg4 mi
10:30 AM75 °FPassing clouds.3 mph78%29.92 "Hg4 mi
10:00 AM73 °FFog.6 mph89%29.92 "Hg3 mi
9:30 AM73 °FFog.6 mph83%29.95 "Hg3 mi
9:00 AM73 °FFog.3 mph89%29.95 "Hg2 mi
8:30 AM72 °FFog.3 mph88%29.92 "Hg1 mi
8:00 AM70 °FFog.1 mph94%29.92 "Hg1 mi
7:30 AM70 °FFog.1 mph94%29.92 "Hg1 mi
7:00 AM70 °FFog.1 mph94%29.92 "Hg1 mi
6:30 AM70 °FFog.1 mph94%29.92 "Hg1 mi
6:00 AM70 °FFog.3 mph94%29.92 "Hg1 mi
5:30 AM68 °FFog.1 mph100%29.92 "Hg2 mi
4:30 AM68 °FFog.3 mph100%29.89 "Hg2 mi
4:00 AM70 °FFog.3 mph94%29.89 "Hg2 mi
3:30 AM70 °FSprinkles. Fog.3 mph94%29.89 "Hg2 mi
3:00 AM70 °FFog.1 mph94%29.92 "Hg2 mi
2:30 AM70 °FFog.No wind94%29.92 "Hg2 mi
2:00 AM70 °FFog.1 mph94%29.92 "Hg1 mi
1:30 AM70 °FFog.1 mph94%29.92 "Hg1 mi
1:00 AM70 °FSprinkles. Fog.1 mph94%29.92 "Hg2 mi
12:30 AM70 °FSprinkles. Fog.3 mph94%29.92 "Hg2 mi
12:00 AM70 °FThunderstorms. Fog.3 mph94%29.95 "Hg2 mi
11:30 PM
Aug 30
70 °FThunderstorms. Fog.1 mph94%29.95 "Hg2 mi
11:00 PM72 °FThunderstorms. Fog.6 mph88%29.95 "Hg2 mi
10:30 PM72 °FThunderstorms. Fog.No wind94%29.92 "Hg2 mi
10:00 PM72 °FFog.1 mph94%29.92 "Hg2 mi
9:30 PM72 °FFog.3 mph94%29.95 "Hg3 mi
9:00 PM72 °FFog.3 mph88%29.95 "Hg3 mi
8:30 PM72 °FFog.3 mph88%29.95 "Hg3 mi
8:00 PM72 °FFog.1 mph88%29.92 "Hg3 mi
7:30 PM72 °FFog.1 mph88%29.92 "Hg3 mi
7:00 PM72 °FFog.1 mph94%29.92 "Hg2 mi
6:30 PM72 °FFog.1 mph94%29.92 "Hg2 mi
6:00 PM73 °FFog.3 mph89%29.89 "Hg1 mi
5:30 PM73 °FFog.3 mph89%29.89 "Hg1 mi
5:00 PM75 °FFog.3 mph89%29.92 "Hg1 mi
4:30 PM75 °FFog.1 mph89%29.92 "Hg1 mi
4:00 PM75 °FFog.1 mph89%29.92 "Hg1 mi
3:30 PM75 °FFog.3 mph89%29.92 "Hg2 mi
3:00 PM77 °FSprinkles. Fog.1 mph79%29.92 "Hg2 mi
2:30 PM77 °FFog.3 mph79%29.92 "Hg2 mi
2:00 PM77 °FFog.6 mph79%29.92 "Hg2 mi
1:30 PM79 °FFog.3 mph79%29.95 "Hg2 mi
1:00 PM77 °FFog.3 mph79%29.95 "Hg2 mi
Weather by CustomWeather, © 2014

See weather overviewHow to use our weather pages